Regional Weather Roundup
Issued by NWS

Home | Current Version | Previous Version | Graphics & Text | Print | Product List | Glossary On
Versions: 1 2 3 4 5 6 7 8 9 10 11 12 13 14 15 16 17 18 19 20 21 22 23 24 25 26 27 28 29 30 31 32 33 34 35 36 37 38 39 40 41 42 43 44 45 46 47 48 49 50
000
ASUS43 KFSD 272110
RWRSD

WEATHER ROUNDUP FOR SOUTH DAKOTA
NATIONAL WEATHER SERVICE SIOUX FALLS SD
300 PM CST MON FEB 27 2017

NOTE: "FAIR" INDICATES FEW OR NO CLOUDS BELOW 12,000 FEET WITH NO
SIGNIFICANT WEATHER AND/OR OBSTRUCTIONS TO VISIBILITY.


SDZ001>005-009-010-012>017-272200-
NORTHWEST AND NORTH CENTRAL SOUTH DAKOTA

CITY           SKY/WX    TMP DP  RH WIND       PRES   REMARKS
BUFFALO          N/A     36  20  52 E8        29.57R
FAITH            N/A     36  20  52 N12       29.64S
MOBRIDGE       MOSUNNY   40  21  46 N5        29.65F
$$

SDZ012>016-024>037-041>051-057-063-072>074-272200-
SOUTHWEST AND SOUTH CENTRAL SOUTH DAKOTA

CITY           SKY/WX    TMP DP  RH WIND       PRES   REMARKS
RAPID CTY ARPT CLOUDY    45  24  43 N10       29.56F
PIERRE         MOSUNNY   49  16  26 NW10      29.63F
CUSTER         CLOUDY    32  19  58 W7        29.52F WCI  26
ELLSWORTH AFB  PTSUNNY   41  20  43 N16       29.57S
PHILIP         CLOUDY    47  24  40 N7        29.60F
PINE RIDGE     CLOUDY    37  21  52 W6        29.60F
SPEARFISH      FAIR      34  14  44 E8        29.59S WCI  27
WINNER         FAIR      46  29  51 SW15      29.67F
$$

SDZ004>011-016>023-039-040-272200-
NORTHEAST SOUTH DAKOTA

CITY           SKY/WX    TMP DP  RH WIND       PRES   REMARKS
ABERDEEN       SUNNY     42  18  37 CALM      29.71F
WATERTOWN      MOSUNNY   43  20  39 S22G30    29.71F
BROOKINGS      SUNNY     45  19  35 S24G31    29.73F
SISSETON         N/A     39  29  67 S9        29.74F
$$

SDZ017-020-022-023-036>040-048>070-272200-
SOUTHEAST SOUTH DAKOTA

CITY           SKY/WX    TMP DP  RH WIND       PRES   REMARKS
SIOUX FALLS    PTSUNNY   44  26  49 S21G29    29.77F
HURON          CLOUDY    46  22  38 S13       29.70F
CHAMBERLAIN    SUNNY     50  29  45 S18       29.67F
MITCHELL       SUNNY     47  26  44 S17       29.74F
YANKTON        CLOUDY    45  27  49 S14       29.75F
$$

ABBREVIATIONS USED IN REMARKS
   TC - TEMPERATURE IN CELSIUS
  WCI - WIND CHILL INDEX
   HX - HEAT INDEX
  VSB - VISIBILITY




USA.gov is the U.S. government's official web portal to all federal, state and local government web resources and services.